Location: Lecco
(45.8566°N, 9.3977°E)
Time: 07:10:50
(UTC+02:00)

A-11 Canister half - Pass Details

Date: 19 August 2020
Orbit: 1514 x 1686 km, 47.2° (Epoch: 21 September)

Event Time Altitude Azimuth Distance (km) Brightness Sun altitude
Rises 23:39:01 0° 293° (WNW) 4,832 12.4 -27.0°
Reaches altitude 10° 23:42:31 10° 284° (WNW) 3,868 11.6 -27.3°
Maximum altitude 23:50:53 33° 226° (SW) 2,551 9.9 -28.0°
Enters shadow 23:52:51 30° 206° (SSW) 2,650 9.9 -28.1°
